Punta Gorda, FL

10:27 PM EST on December 11, 2019 (GMT -0500)
Charlotte County

Weather History for KPGD - September, 2019

Change the Weather History Date:

Monday, September 2, 2019

  Actual Average Record
Temperature  
Mean Temperature 84 °F -  
Max Temperature 93 °F 88 °F 95 °F (2014)
Min Temperature 77 °F 72 °F 71 °F (2010)
Cooling Degree Days 19    
Growing Degree Days 34 (Base 50)    
Moisture  
Dew Point 77 °F    
Average Humidity 87    
Maximum Humidity 100    
Minimum Humidity 55    
Precipitation  
Precipitation 0.16 in - - ()
Sea Level Pressure  
Sea Level Pressure 29.82 in    
Wind  
Wind Speed 9 mph (North)    
Max Wind Speed 25 mph    
Max Gust Speed 43 mph    
Visibility 10 miles    
Events Rain , Thunderstorm    
Averages and records for this station are not official NWS values.
T = Trace of Precipitation, MM = Missing Value Source: NWS Daily Summary

Daily Weather History Graph

Daily Weather History Graph

Search for Another Location

Airport or City:

Astronomy

Sep. 02, 2019 Rise Set
Actual Time 7:07 AM EDT 7:47 PM EDT
Civil Twilight 6:44 AM EDT 8:10 PM EDT
Nautical Twilight 6:16 AM EDT 8:38 PM EDT
Astronomical Twilight 5:48 AM EDT 9:06 PM EDT
Moon 10:30 AM EDT (9/2) 10:29 PM EDT (9/2)
Length of Visible Light 13h 26m
Length of Day
12h 39m
Waxing Crescent, 15% of the Moon is Illuminated
Sep 2
Waxing Crescent
Sep 5
First Quarter
Sep 14
Full
Sep 21
Last Quarter
Sep 28
New

Hourly Weather History & Observations

Time (EDT) Temp. Heat Index Dew Point Humidity Pressure Visibility Wind Dir Wind Speed Gust Speed Precip Events Conditions
12:53 AM 78.1 °F - 77.0 °F 96% 29.88 in 10.0 mi North 5.8 mph - N/A   Clear
1:53 AM 78.1 °F - 78.1 °F 100% 29.86 in 10.0 mi North 6.9 mph - N/A   Clear
2:53 AM 78.1 °F - 77.0 °F 96% 29.84 in 10.0 mi North 8.1 mph - N/A   Clear
3:53 AM 78.1 °F - 77.0 °F 96% 29.83 in 10.0 mi North 5.8 mph - N/A   Clear
4:53 AM 77.0 °F - 77.0 °F 100% 29.83 in 10.0 mi NNW 8.1 mph - N/A   Clear
5:53 AM 77.0 °F - 77.0 °F 100% 29.83 in 10.0 mi NNW 8.1 mph - N/A   Clear
6:53 AM 77.0 °F - 77.0 °F 100% 29.83 in 10.0 mi NNW 8.1 mph - N/A   Clear
7:53 AM 78.1 °F - 78.1 °F 100% 29.85 in 10.0 mi NW 9.2 mph - N/A   Partly Cloudy
8:12 AM 79.0 °F - 78.1 °F 97% 29.85 in 10.0 mi NNW 10.4 mph - N/A   Mostly Cloudy
8:19 AM 79.0 °F - 78.1 °F 97% 29.85 in 10.0 mi NNW 9.2 mph - N/A   Mostly Cloudy
8:53 AM 80.1 °F 86.4 °F 78.1 °F 94% 29.86 in 10.0 mi NNW 10.4 mph - N/A   Mostly Cloudy
9:01 AM 81.0 °F 88.6 °F 78.1 °F 91% 29.85 in 10.0 mi NNW 10.4 mph - N/A   Mostly Cloudy
9:53 AM 84.0 °F 96.0 °F 79.0 °F 85% 29.87 in 10.0 mi NNW 10.4 mph - N/A   Mostly Cloudy
10:53 AM 86.0 °F 98.3 °F 78.1 °F 77% 29.86 in 10.0 mi North 9.2 mph - N/A   Mostly Cloudy
11:53 AM 86.0 °F 100.8 °F 80.1 °F 82% 29.85 in 10.0 mi North 9.2 mph - 0.03 in   Mostly Cloudy
12:53 PM 90.0 °F 99.0 °F 73.9 °F 59% 29.82 in 10.0 mi North 11.5 mph - N/A   Partly Cloudy
1:53 PM 91.0 °F 101.6 °F 75.0 °F 59% 29.81 in 10.0 mi North 13.8 mph - N/A   Partly Cloudy
2:53 PM 91.9 °F 101.3 °F 73.9 °F 55% 29.77 in 10.0 mi NNW 13.8 mph - N/A   Partly Cloudy
3:28 PM 91.0 °F 101.6 °F 75.0 °F 59% 29.75 in 10.0 mi North 15.0 mph 24.2 mph N/A Thunderstorm Mostly Cloudy
3:50 PM 80.6 °F 87.1 °F 77.0 °F 89% 29.78 in 10.0 mi North 25.3 mph 42.6 mph 0.01 in Rain , Thunderstorm Light Thunderstorms and Rain
3:53 PM 79.0 °F - 77.0 °F 94% 29.77 in 10.0 mi North 19.6 mph 42.6 mph 0.01 in Thunderstorm Thunderstorm
4:12 PM 79.0 °F - 78.1 °F 97% 29.76 in 5.0 mi North 13.8 mph 23.0 mph 0.12 in Rain Rain
4:53 PM 82.0 °F 90.2 °F 77.0 °F 85% 29.76 in 10.0 mi North 10.4 mph - 0.12 in   Clear
5:53 PM 87.1 °F 97.3 °F 75.9 °F 69% 29.78 in 10.0 mi North 13.8 mph 23.0 mph N/A   Clear
6:53 PM 81.0 °F 87.3 °F 75.9 °F 85% 29.79 in 10.0 mi North 11.5 mph - 0.00 in   Scattered Clouds
7:53 PM 81.0 °F 87.9 °F 77.0 °F 88% 29.80 in 10.0 mi North 10.4 mph - N/A   Clear
8:53 PM 81.0 °F 87.3 °F 75.9 °F 85% 29.79 in 10.0 mi North 10.4 mph - N/A   Clear
9:53 PM 81.0 °F 87.9 °F 77.0 °F 88% 29.82 in 10.0 mi North 9.2 mph - N/A   Clear
10:53 PM 80.1 °F 85.8 °F 77.0 °F 90% 29.81 in 10.0 mi North 8.1 mph - N/A   Clear
11:53 PM 80.1 °F 85.8 °F 77.0 °F 90% 29.81 in 10.0 mi North 10.4 mph - N/A   Clear